| time (UTC) | temp C | wind direction | speed KPH | gust KPH | rain 1hr cm | rain 24hr cm | rain mn cm | humidity % | barometer mb |
| 20260505122526 | 12 | 0.0 | 0.0 | 0.00 | 0.00 | 0.00 | 32 | 1023.5 | |
| 20260505121518 | 12 | 0.0 | 0.0 | 0.00 | 0.00 | 0.00 | 32 | 1023.7 | |
| 20260505120526 | 12 | 0.0 | 0.0 | 0.00 | 0.00 | 0.00 | 32 | 1023.8 | |
| 20260505115518 | 12 | 0.0 | 0.0 | 0.00 | 0.00 | 0.00 | 31 | 1023.9 | |
| 20260505114526 | 12 | 0.0 | 0.0 | 0.00 | 0.00 | 0.00 | 30 | 1023.8 | |
| 20260505113518 | 12 | 0.0 | 0.0 | 0.00 | 0.00 | 0.00 | 32 | 1023.8 | |
| 20260505112526 | 12 | 0.0 | 0.0 | 0.00 | 0.00 | 0.00 | 29 | 1023.7 | |
| 20260505111517 | 13 | 0.0 | 0.0 | 0.00 | 0.00 | 0.00 | 32 | 1023.7 | |
| 20260505110526 | 13 | 0.0 | 0.0 | 0.00 | 0.00 | 0.00 | 32 | 1023.6 | |
| 20260505101518 | 13 | 0.0 | 0.0 | 0.00 | 0.00 | 0.00 | 30 | 1023.7 | |
| 20260505100519 | 13 | 0.0 | 0.0 | 0.00 | 0.00 | 0.00 | 30 | 1023.8 | |
| 20260505095525 | 13 | 0.0 | 0.0 | 0.00 | 0.00 | 0.00 | 30 | 1023.7 | |
| 20260505094525 | 13 | 0.0 | 0.0 | 0.00 | 0.00 | 0.00 | 29 | 1023.6 | |
| 20260505093518 | 13 | 0.0 | 0.0 | 0.00 | 0.00 | 0.00 | 29 | 1023.6 | |
| 20260505092526 | 13 | 0.0 | 0.0 | 0.00 | 0.00 | 0.00 | 29 | 1023.6 | |
| 20260505091519 | 13 | 0.0 | 0.0 | 0.00 | 0.00 | 0.00 | 29 | 1023.6 | |
| 20260505090522 | 13 | 0.0 | 0.0 | 0.00 | 0.00 | 0.00 | 29 | 1023.5 | |
| 20260505085522 | 13 | 0.0 | 0.0 | 0.00 | 0.00 | 0.00 | 28 | 1023.6 | |
| 20260505084618 | 13 | 0.0 | 0.0 | 0.00 | 0.00 | 0.00 | 28 | 1023.4 | |
| 20260505083524 | 13 | 0.0 | 0.0 | 0.00 | 0.00 | 0.00 | 26 | 1023.3 | |
| 20260505082526 | 13 | 0.0 | 0.0 | 0.00 | 0.00 | 0.00 | 26 | 1023.1 | |
| 20260505081518 | 13 | 0.0 | 0.0 | 0.00 | 0.00 | 0.00 | 26 | 1023.1 | |
| 20260505080546 | 13 | 0.0 | 0.0 | 0.00 | 0.00 | 0.00 | 27 | 1023.0 | |
| 20260505075518 | 14 | 0.0 | 0.0 | 0.00 | 0.00 | 0.00 | 26 | 1022.8 | |
| 20260505074526 | 14 | 0.0 | 0.0 | 0.00 | 0.00 | 0.00 | 27 | 1022.8 | |
| 20260505073549 | 14 | 0.0 | 0.0 | 0.00 | 0.00 | 0.00 | 26 | 1022.7 | |
| 20260505072525 | 14 | 0.0 | 0.0 | 0.00 | 0.00 | 0.00 | 26 | 1022.6 | |
| 20260505071518 | 14 | 0.0 | 0.0 | 0.00 | 0.00 | 0.00 | 25 | 1022.5 | |
| 20260505070525 | 14 | 0.0 | 0.0 | 0.00 | 0.00 | 0.00 | 25 | 1022.5 | |
| 20260505065557 | 15 | 0.0 | 0.0 | 0.00 | 0.00 | 0.00 | 24 | 1022.3 | |
| 20260505064541 | 15 | 0.0 | 0.0 | 0.00 | 0.00 | 0.00 | 23 | 1022.2 | |
| 20260505063537 | 15 | 0.0 | 0.0 | 0.00 | 0.00 | 0.00 | 23 | 1022.2 | |
| 20260505062545 | 15 | 0.0 | 0.0 | 0.00 | 0.00 | 0.00 | 24 | 1022.2 | |
| 20260505061517 | 15 | 0.0 | 0.0 | 0.00 | 0.00 | 0.00 | 23 | 1022.2 | |
| 20260505060545 | 15 | 0.0 | 0.0 | 0.00 | 0.00 | 0.00 | 24 | 1022.2 | |
| 20260505055517 | 15 | 0.0 | 0.0 | 0.00 | 0.00 | 0.00 | 23 | 1022.1 | |
| 20260505054525 | 15 | 0.0 | 0.0 | 0.00 | 0.00 | 0.00 | 23 | 1022.0 | |
| 20260505053519 | 15 | 0.0 | 0.0 | 0.00 | 0.00 | 0.00 | 23 | 1021.8 | |
| 20260505052526 | 15 | 0.0 | 0.0 | 0.00 | 0.00 | 0.00 | 22 | 1021.7 | |
| 20260505051516 | 15 | 0.0 | 0.0 | 0.00 | 0.00 | 0.00 | 21 | 1021.6 | |
| 20260505050524 | 15 | 0.0 | 0.0 | 0.00 | 0.00 | 0.00 | 22 | 1021.6 | |
| 20260505041517 | 15 | 0.0 | 0.0 | 0.00 | 0.00 | 0.00 | 22 | 1021.3 | |
| 20260505040524 | 15 | 0.0 | 0.0 | 0.00 | 0.00 | 0.00 | 23 | 1021.3 | |
| 20260505035516 | 15 | 251 | 0.0 | 3.2 | 0.00 | 0.00 | 0.00 | 23 | 1021.2 |
| 20260505034524 | 15 | 0.0 | 0.0 | 0.00 | 0.00 | 0.00 | 23 | 1021.4 | |
| 20260505033517 | 15 | 271 | 0.0 | 8.0 | 0.00 | 0.00 | 0.00 | 22 | 1021.3 |
| 20260505032524 | 15 | 239 | 0.0 | 8.0 | 0.00 | 0.00 | 0.00 | 22 | 1021.3 |
| 20260505031519 | 15 | 245 | 1.6 | 8.0 | 0.00 | 0.00 | 0.00 | 22 | 1021.3 |
| 20260505030524 | 15 | 274 | 0.0 | 3.2 | 0.00 | 0.00 | 0.00 | 22 | 1021.2 |
| 20260505025517 | 15 | 0.0 | 0.0 | 0.00 | 0.00 | 0.00 | 21 | 1021.3 | |
| 20260505024524 | 15 | 240 | 1.6 | 11.3 | 0.00 | 0.00 | 0.00 | 23 | 1021.4 |
| 20260505023542 | 14 | 226 | 0.0 | 3.2 | 0.00 | 0.00 | 0.00 | 23 | 1021.3 |
| 20260505022524 | 14 | 266 | 1.6 | 8.0 | 0.00 | 0.00 | 0.00 | 24 | 1021.5 |
| 20260505021527 | 14 | 282 | 0.0 | 3.2 | 0.00 | 0.00 | 0.00 | 25 | 1021.5 |
| 20260505020525 | 14 | 273 | 0.0 | 8.0 | 0.00 | 0.00 | 0.00 | 25 | 1021.5 |
| 20260505015517 | 15 | 232 | 0.0 | 3.2 | 0.00 | 0.00 | 0.00 | 26 | 1021.6 |
| 20260505014544 | 15 | 256 | 3.2 | 8.0 | 0.00 | 0.00 | 0.00 | 26 | 1021.7 |
| 20260505013557 | 15 | 245 | 1.6 | 11.3 | 0.00 | 0.00 | 0.00 | 25 | 1021.7 |
| 20260505012524 | 14 | 331 | 0.0 | 3.2 | 0.00 | 0.00 | 0.00 | 23 | 1021.7 |
| 20260505011517 | 13 | 0.0 | 0.0 | 0.00 | 0.00 | 0.00 | 26 | 1021.8 | |
| 20260505010524 | 13 | 259 | 1.6 | 8.0 | 0.00 | 0.00 | 0.00 | 27 | 1021.6 |
| 20260505005523 | 14 | 270 | 0.0 | 8.0 | 0.00 | 0.00 | 0.00 | 29 | 1021.6 |
| 20260505004530 | 14 | 257 | 3.2 | 11.3 | 0.00 | 0.00 | 0.00 | 28 | 1021.5 |
| 20260505003533 | 14 | 262 | 1.6 | 11.3 | 0.00 | 0.00 | 0.00 | 28 | 1021.4 |
| 20260505002524 | 13 | 251 | 4.8 | 16.1 | 0.00 | 0.00 | 0.00 | 29 | 1021.3 |
| 20260505001516 | 13 | 256 | 3.2 | 11.3 | 0.00 | 0.00 | 0.00 | 29 | 1021.2 |
| 20260505000517 | 13 | 251 | 3.2 | 16.1 | 0.00 | 0.00 | 0.00 | 31 | 1021.2 |
| 20260504235516 | 13 | 261 | 3.2 | 16.1 | 0.00 | 0.00 | 0.00 | 31 | 1021.1 |
| 20260504234524 | 13 | 238 | 1.6 | 11.3 | 0.00 | 0.00 | 0.00 | 31 | 1021.2 |
| 20260504233552 | 13 | 276 | 1.6 | 16.1 | 0.00 | 0.00 | 0.00 | 31 | 1021.0 |
| 20260504232544 | 13 | 264 | 0.0 | 3.2 | 0.00 | 0.00 | 0.00 | 32 | 1020.9 |
| 20260504231533 | 13 | 267 | 0.0 | 3.2 | 0.00 | 0.00 | 0.00 | 32 | 1020.9 |
| 20260504230524 | 13 | 0.0 | 0.0 | 0.00 | 0.00 | 0.00 | 32 | 1020.9 | |
| 20260504225532 | 13 | 0.0 | 0.0 | 0.00 | 0.00 | 0.00 | 34 | 1020.8 | |
| 20260504224524 | 12 | 0.0 | 0.0 | 0.00 | 0.00 | 0.00 | 35 | 1020.7 | |
| 20260504223516 | 12 | 0.0 | 0.0 | 0.00 | 0.00 | 0.00 | 36 | 1020.5 | |
| 20260504222525 | 12 | 0.0 | 0.0 | 0.00 | 0.00 | 0.00 | 39 | 1020.2 | |
| 20260504221532 | 11 | 0.0 | 0.0 | 0.00 | 0.00 | 0.00 | 41 | 1020.1 | |
| 20260504220523 | 11 | 0.0 | 0.0 | 0.00 | 0.00 | 0.00 | 42 | 1020.0 | |
| 20260504215532 | 11 | 0.0 | 0.0 | 0.00 | 0.00 | 0.00 | 42 | 1019.9 | |
| 20260504214520 | 11 | 0.0 | 0.0 | 0.00 | 0.00 | 0.00 | 42 | 1019.6 | |
| 20260504213612 | 11 | 0.0 | 0.0 | 0.00 | 0.00 | 0.00 | 42 | 1019.5 | |
| 20260504212545 | 11 | 0.0 | 0.0 | 0.00 | 0.00 | 0.00 | 40 | 1019.2 | |
| 20260504211532 | 11 | 0.0 | 0.0 | 0.00 | 0.00 | 0.00 | 40 | 1019.0 | |
| 20260504210524 | 11 | 0.0 | 0.0 | 0.00 | 0.00 | 0.00 | 40 | 1019.0 | |
| 20260504205517 | 12 | 0.0 | 0.0 | 0.00 | 0.00 | 0.00 | 40 | 1018.8 | |
| 20260504204523 | 12 | 0.0 | 0.0 | 0.00 | 0.00 | 0.00 | 40 | 1018.7 | |
| 20260504203532 | 12 | 287 | 0.0 | 3.2 | 0.00 | 0.00 | 0.00 | 39 | 1018.5 |
| 20260504202524 | 12 | 0.0 | 0.0 | 0.00 | 0.00 | 0.00 | 39 | 1018.3 | |
| 20260504201516 | 12 | 0.0 | 0.0 | 0.00 | 0.00 | 0.00 | 38 | 1018.1 | |
| 20260504200522 | 12 | 0.0 | 0.0 | 0.00 | 0.00 | 0.00 | 37 | 1018.1 | |
| 20260504195516 | 12 | 0.0 | 0.0 | 0.00 | 0.00 | 0.00 | 35 | 1018.1 | |
| 20260504194523 | 12 | 355 | 0.0 | 3.2 | 0.00 | 0.00 | 0.00 | 33 | 1017.9 |
| 20260504193551 | 12 | 159 | 0.0 | 3.2 | 0.00 | 0.00 | 0.00 | 33 | 1017.8 |
| 20260504192524 | 12 | 0.0 | 0.0 | 0.00 | 0.00 | 0.00 | 32 | 1017.7 | |
| 20260504191532 | 12 | 0.0 | 0.0 | 0.00 | 0.00 | 0.00 | 32 | 1017.6 | |
| 20260504190524 | 12 | 0.0 | 0.0 | 0.00 | 0.00 | 0.00 | 33 | 1017.6 | |
| 20260504185516 | 12 | 247 | 0.0 | 3.2 | 0.00 | 0.00 | 0.00 | 33 | 1017.4 |
| 20260504184544 | 12 | 0.0 | 0.0 | 0.00 | 0.00 | 0.00 | 33 | 1017.4 | |
| 20260504183552 | 12 | 0.0 | 0.0 | 0.00 | 0.00 | 0.00 | 33 | 1017.2 | |
| 20260504182544 | 12 | 260 | 0.0 | 8.0 | 0.00 | 0.00 | 0.00 | 32 | 1017.0 |
| 20260504181532 | 12 | 0.0 | 0.0 | 0.00 | 0.00 | 0.00 | 33 | 1017.0 | |
| 20260504180531 | 12 | 277 | 0.0 | 3.2 | 0.00 | 0.00 | 0.00 | 33 | 1016.9 |
| 20260504175532 | 12 | 0.0 | 0.0 | 0.00 | 0.00 | 0.00 | 33 | 1016.7 | |
| 20260504174523 | 12 | 309 | 0.0 | 8.0 | 0.00 | 0.00 | 0.00 | 33 | 1016.7 |
| 20260504173611 | 12 | 0.0 | 0.0 | 0.00 | 0.00 | 0.00 | 33 | 1016.7 | |
| 20260504172524 | 12 | 195 | 0.0 | 3.2 | 0.00 | 0.00 | 0.00 | 33 | 1016.6 |
| 20260504171604 | 12 | 0.0 | 0.0 | 0.00 | 0.00 | 0.00 | 34 | 1016.5 | |
| 20260504170528 | 12 | 287 | 0.0 | 3.2 | 0.00 | 0.00 | 0.00 | 34 | 1016.5 |
| 20260504150523 | 13 | 317 | 0.0 | 3.2 | 0.00 | 0.00 | 0.00 | 34 | 1016.0 |
| 20260504140524 | 13 | 311 | 1.6 | 8.0 | 0.00 | 0.00 | 0.00 | 34 | 1015.4 |
| 20260504130523 | 13 | 357 | 0.0 | 8.0 | 0.00 | 0.00 | 0.00 | 35 | 1015.2 |